Вернуться в каталог

STARLINK-34181

АктивенСвязьVLEO
NORAD 64144·PAYLOAD·🇺🇸 United States

Запущен May 24, 2025 с Cape Canaveral Space Force Station

Loading…

Ближайшие Пролёты (ближайшие 24 часа)

TLE

СвежийSource: CelesTrak SupGP

Эпоха: Sep 14, 2026, 23:07 UTC

1 64144C 25111X   26257.96368056  .00016529  00000+0  59912-3 0  2572
2 64144  43.0032  88.9618 0001623 285.4279 312.3355 15.27545228    16

Отслеживайте STARLINK-34181 в реальном времени с AllMySat

Download on the App Store